星链-35562(STARLINK-35562)

导读

STARLINK-35562是美国SpaceX星链计划的卫星,于2025年10月19日发射。作为星链低轨互联网星座的一员,它主要为全球提供高速卫星互联网接入服务,尤其覆盖偏远无网络区域。该卫星运行在近地轨道,依托大量组网卫星,能降低通信延迟,支撑消费级终端接入,延续星链星座的商业与服务布局。

Basic Information
目录编号:
66063
目录名称:
STARLINK-35562
国际标识:
2025-235F
轨道中心:
EARTH
卫星名称:
星链-35562
卫星全名:
星链-35562(STARLINK-35562)
卫星状态:
在轨 (已飞行321 天)
发射日期:
2025-10-19 UTC
国别 :
美国 (US)
星等 :
--
Orbit Information
数据来源 国际轨道数据
星历时间: 2026-09-04T10:50:44+0800
1天前
查看轨道信息
半长轴: 6840.841km
偏心率: 0.0001043
轨道倾角: 53.157°
近地点辐角 110.030°
升交点赤经 136.210°
平近点角 250.082°
近地点: 461.99km
远地点: 463.418km
周期: 93.848分钟
每日圈数: 15.343998
Detailed Information
固有亮度:
5
最大亮度:
2.5
卫星平台:
Starlink V1.0
覆盖范围:
全球
运营商:
太空探索技术公司
运营商所在国:
美国
制造商(研发单位):
太空探索技术公司
制造商所在国:
美国
使用方式:
暂无
Satellite Introduction
Starlink 计划是 SpaceX 推出的全球卫星互联网项目,通过发射低轨道卫星,为全球尤其是偏远地区提供高速、低延迟的互联网服务。自 2019 年起,Starlink 已部署数千颗卫星,旨在缩小全球数字鸿沟,推动互联网普及。该项目还为军事、航空等行业提供通信支持,带来广泛经济效益。
2D Orbit Map
3D Orbit Map
Orbit Altitude Analysis Chart
Orbit Inclination Analysis Chart
Orbit Comprehensive Analysis Chart
View Comprehensive Chart
Conjunction Data List
Event ID Objects TCA Miss Dist (km) Collision Risk Probability Collision Risk Index (CRI) Action
CDM_260906-230704-975506-606322
2026-09-06T
23:07:22+0000
0.530 km
远距离
1.201937E-4 高风险 0.77
CDM_260907-031006-606306-819221
2026-09-07T
03:10:00+0000
0.419 km
远距离
9.959122E-5 中风险 0.75
CDM_260907-122404-975506-606321
2026-09-07T
12:24:36+0000
0.620 km
远距离
7.881758E-5 中风险 0.73
CDM_260907-035606-606306-819221
2026-09-07T
03:56:54+0000
1.325 km
极远距离
2.684322E-6 低风险 0.44
CDM_260907-105004-975506-606321
2026-09-07T
10:50:49+0000
2.098 km
极远距离
1.695735E-6 低风险 0.4
CDM_260905-224504-464106-606324
2026-09-05T
22:45:17+0000
2.647 km
极远距离
1.583784E-6 低风险 0.39
CDM_260906-213304-975506-606321
2026-09-06T
21:33:34+0000
2.194 km
极远距离
1.534112E-6 低风险 0.39
CDM_260901-045505-850206-606323
OBJECT A (58502)
2026-09-01T
04:55:27+0000
2.900 km
极远距离
1.28158E-6 低风险 0.37
CDM_260906-195606-350006-606321
2026-09-06T
19:56:26+0000
2.743 km
极远距离
1.187157E-6 低风险 0.36
CDM_260907-004104-975506-606322
2026-09-07T
00:41:10+0000
2.551 km
极远距离
1.153963E-6 低风险 0.36